Content
SEND FEEDBACK

Daily
Averages
Monthly
Summary
United States of America

HAZELWOOD, MISSOURI


Home > North America > United States > Missouri
Elevation: 570 feet     Latitude: 38 45N     Longitude: 090 22W

WEATHER
 
SELECT A DAY
Number of Records: 201,410;   Date Range: 1/1/95 - 12/24/14
 
SHARE

PRINT THIS DATA

[ ← Previous Day ]
WEATHER ALMANAC - MARCH 23, 2013
[ Next Day → ]
[ °C ]   °F
Weather ElementAverageHighLow
Temperature43.8 °F53.1 °F (3:54 pm)37.4 °F (2:33 am)
Dewpoint26.9 °F36 °F (11:54 pm)19.9 °F (10:54 am)
Humidity52.8 %76 % (11:54 pm)35 % (11:54 am)
Barometer29.96 in30.06 in (8:54 am)29.84 in (7:54 pm)
Wind Speed7.8 mph13.8 mph (3:54 pm)
Wind Gust20.7 mph (1:54 pm)
Weather ElementAverage
Visibility9.5 mi
Wind DirectionENE (61.8 °)

Weather ElementTotal
Precipitation0.04 in
Heating Degree Days19.8 (Base 65)
Averaged from 28 records on March 23, 2013
WEATHER CONDITIONS BREAKOUT
WIND DIRECTION BREAKOUT
WEATHER BY HOUR - MARCH 23, 2013
[ °C ]   °F
Local TimeTemperatureDewpointHumidityBarometerVisibilityWind DirectionWind SpeedGust SpeedPrecipitationEventsConditions
1:54 AM37.9 °F24.1 °F57 %30.04 in10.0 miEast (80°)3.5 mphOvercast
2:33 AM37.4 °F24.8 °F60 %30.02 in10.0 miEast (90°)4.6 mphOvercast
2:54 AM37.9 °F24.1 °F57 %30.03 in10.0 miEast (90°)3.5 mphOvercast
3:54 AM37.9 °F24.1 °F57 %30.01 in10.0 miENE (60°)4.6 mphOvercast
4:54 AM37.9 °F24.1 °F57 %30.01 in10.0 miNE (40°)3.5 mphOvercast
5:24 AM37.4 °F24.8 °F60 %30.00 in10.0 miENE (70°)3.5 mphOvercast
5:33 AM37.4 °F24.8 °F60 %30.00 in10.0 miENE (60°)4.6 mphOvercast
5:54 AM37.9 °F24.1 °F57 %30.03 in10.0 miENE (60°)3.5 mphOvercast
6:54 AM37.9 °F24.1 °F57 %30.04 in10.0 miENE (60°)6.9 mphOvercast
7:54 AM37.4 °F24.8 °F60 %30.04 in10.0 miNE (50°)5.8 mphOvercast
8:54 AM39.0 °F23.0 °F53 %30.06 in10.0 miENE (60°)9.2 mphOvercast
9:54 AM41.0 °F21.0 °F45 %30.04 in10.0 miEast (80°)12.7 mphOvercast
10:54 AM44.1 °F19.9 °F38 %30.04 in10.0 miNE (50°)10.4 mphMostly Cloudy
11:54 AM46.0 °F19.9 °F35 %30.04 in10.0 miENE (60°)5.8 mphMostly Cloudy
12:54 PM48.9 °F23.0 °F36 %30.01 in10.0 miNE (40°)11.5 mphPartly Cloudy
1:54 PM52.0 °F25.0 °F35 %29.98 in10.0 miENE (70°)12.7 mph20.7 mphScattered Clouds
2:54 PM52.0 °F25.0 °F35 %29.94 in10.0 miNE (40°)9.2 mph17.3 mphScattered Clouds
3:54 PM53.1 °F26.1 °F35 %29.91 in10.0 miENE (60°)13.8 mph19.6 mphOvercast
4:54 PM52.0 °F27.0 °F38 %29.88 in10.0 miENE (70°)11.5 mphOvercast
5:54 PM51.1 °F28.9 °F43 %29.86 in10.0 miEast (80°)9.2 mphOvercast
6:54 PM50.0 °F30.9 °F48 %29.87 in10.0 miEast (90°)6.9 mph0.00 inRainLight Rain
7:54 PM48.9 °F32.0 °F52 %29.84 in10.0 miNE (50°)11.5 mph0.00 inOvercast
8:54 PM48.0 °F32.0 °F54 %29.84 in10.0 miNE (50°)9.2 mph0.00 inRainLight Rain
9:54 PM46.0 °F35.1 °F66 %29.86 in10.0 miCalm0.00 inOvercast
10:47 PM44.6 °F33.8 °F66 %29.86 in5.0 miEast (100°)8.1 mph0.01 inRainLight Rain
10:54 PM44.1 °F35.1 °F71 %29.88 in7.0 miENE (60°)12.7 mph16.1 mph0.01 inRainLight Rain
11:09 PM44.6 °F35.6 °F71 %29.86 in7.0 miNE (50°)9.2 mph0.01 inRainLight Rain
11:54 PM43.0 °F36.0 °F76 %29.85 in7.0 miENE (60°)10.4 mph0.01 inRainLight Rain
Hourly data recorded from KSUS, located miles away from Hazelwood, Missouri







STORIES FROM OUR PARTNERS